Regional Weather Roundup
Issued by NWS

Home | Current Version | Previous Version | Text Only | Print | Product List | Glossary Off
Versions: 1 2 3 4 5 6 7 8 9 10 11 12 13 14 15 16 17 18 19 20 21 22 23 24 25 26 27 28 29 30 31 32 33 34 35 36 37 38 39 40 41 42 43 44 45 46 47 48 49 50

579
ASUS44 KLIX 202310
RWRLA
LOUISIANA WEATHER ROUNDUP
NATIONAL WEATHER SERVICE NEW ORLEANS LA
500 PM CST THU NOV 20 2014

NOTE: "FAIR" INDICATES FEW OR NO CLOUDS BELOW 12,000 FEET WITH NO
      SIGNIFICANT WEATHER AND/OR OBSTRUCTIONS TO VISIBILITY.
      SKY/WX - SKY CONDITION AND SIGNIFICANT WEATHER.
      TMP - AIR TEMPERATURE.    DP   - DEWPOINT TEMPERATURE.
      RH  - RELATIVE HUMIDITY.  PRES - PRESSURE.
      HX  - HEAT INDEX.         WCI  - WIND CHILL INDEX.

*  THESE STATIONS ARE NOT NWS OR FAA STATIONS AND ARE NOT UNDER
   NWS QUALITY CONTROL.

LAZ040-048-061>063-065-066-069-210000-
SOUTHEAST LOUISIANA

CITY           SKY/WX    TMP DP  RH WIND       PRES   REMARKS
N.O. AUDUBON     N/A     65  44  47 MISG        N/A
N.O. INTL ARPT PTCLDY    63  45  51 S9        30.21R
N.O. LAKEFRONT CLEAR     63  43  48 SE9       30.22S
N.O. DOWNTOWN* FAIR      64  43  45 S3        30.22R
SLIDELL        MOCLDY    61  43  51 S7        30.20F
BATON ROUGE    CLOUDY    66  46  48 S8        30.17S
BOOTHVILLE     CLEAR     62  46  55 SE3       30.23S
BELLE CHASSE   PTCLDY    62  44  51 SE7       30.22R
BOGALUSA*        N/A     64  46  50 SW3       30.21S
NEW ROADS*     FAIR      66  47  50 S3        30.16S
GONZALES*      FAIR      65  48  54 E3        30.18S
HAMMOND*       MOCLDY    61  45  55 SE9       30.21S
HOUMA*         NOT AVBL
PORT FOURCHON* CLEAR     64  48  55 MISG      30.25S

$$

LAZ041-044-053-054-210000-
SOUTHWEST LOUISIANA

CITY           SKY/WX    TMP DP  RH WIND       PRES   REMARKS
LAKE CHARLES   PTCLDY    64  53  67 SE10      30.13R
LAFAYETTE      CLEAR     64  48  56 S7        30.16S
PATTERSON      PTCLDY    64  48  55 SE9       30.21R
SALT POINT       N/A     63  52  67 SE6       30.18R
NEW IBERIA     CLEAR     63  49  60 S8        30.17F
CHENAULT AIRPK PTCLDY    64  54  68 SE10      30.15R

$$

LAZ027-028-210000-
CENTRAL LOUISIANA

CITY           SKY/WX    TMP DP  RH WIND       PRES   REMARKS
FORT POLK      CLOUDY    65  51  59 SE10      30.12R
ALEXANDRIA INT CLEAR     66  50  56 S6        30.12R
ALEXANDRIA     PTCLDY    67  49  52 S6        30.14R

$$

LAZ001-002-210000-
NORTHWEST LOUISIANA

CITY           SKY/WX    TMP DP  RH WIND       PRES   REMARKS
SHREVEPORT     MOCLDY    60  57  89 E6        30.10S
BARKSDALE AFB  MOCLDY    59  58  94 E2        30.11S
DTN SHREVEPORT CLOUDY    61  56  83 CALM      30.11R

$$

LAZ014-016-210000-
NORTHEAST LOUISIANA

CITY           SKY/WX    TMP DP  RH WIND       PRES   REMARKS
MONROE         MOCLDY    61  53  75 CALM      30.15S
TALLULAH       MOCLDY    61  53  75 CALM      30.16S

$$




USA.gov is the U.S. government's official web portal to all federal, state and local government web resources and services.